Fairfield, IL

3:40 PM CDT on April 25, 2017 (GMT -0500)
Fairfield Municipal

Weather History for KFWC - November, 2012

Change the Weather History Date:

Thursday, November 22, 2012

  Actual Average (KEVV) Record (KEVV)
Temperature  
Mean Temperature 50 °F -  
Max Temperature 62 °F 52 °F 78 °F (1900)
Min Temperature 37 °F 32 °F 10 °F (1964)
Degree Days  
Heating Degree Days 16    
Moisture  
Dew Point 45 °F    
Average Humidity 79    
Maximum Humidity 100    
Minimum Humidity 52    
Precipitation  
Precipitation 0.19 in - - ()
Sea Level Pressure  
Sea Level Pressure 30.10 in    
Wind  
Wind Speed 5 mph (SSW)    
Max Wind Speed 16 mph    
Max Gust Speed 22 mph    
Visibility 6 miles    
Events Fog , Rain , Thunderstorm    
Averages and records for this station are not official NWS values.
T = Trace of Precipitation, MM = Missing Value Source: NWS Daily Summary

Daily Weather History Graph

Daily Weather History Graph

Search for Another Location

Airport or City:

Trip Planner

Search our weather history database for the weather conditions in past years. The results will help you decide how hot, cold, wet, or windy it might be!

Date:

Astronomy

Nov. 22, 2012 Rise Set
Actual Time 6:43 AM CST 4:36 PM CST
Civil Twilight 6:14 AM CST 5:05 PM CST
Nautical Twilight 5:42 AM CST 5:37 PM CST
Astronomical Twilight 5:10 AM CST 6:09 PM CST
Moon 1:18 PM CST (11/22) 1:06 AM CST (11/22)
Length of Visible Light 10h 50m
Length of Day
9h 53m
Waxing Gibbous, 71% of the Moon is Illuminated
Nov 22
Waxing Gibbous
Nov 28
Full
Dec 6
Last Quarter
Dec 13
New
Dec 19
First Quarter

Hourly Weather History & Observations

Time (CST) Temp. Windchill Dew Point Humidity Pressure Visibility Wind Dir Wind Speed Gust Speed Precip Events Conditions
12:15 AM 42.8 °F - 41.0 °F 93% 30.19 in 0.2 mi Calm Calm - N/A Fog Fog
12:35 AM 39.2 °F - 37.4 °F 93% 30.19 in 0.5 mi Calm Calm - N/A Fog Fog
12:55 AM 41.0 °F - 39.2 °F 93% 30.19 in 0.8 mi Calm Calm - N/A   Mist
1:15 AM 39.2 °F - 37.4 °F 93% 30.19 in 0.2 mi Calm Calm - N/A Fog Fog
1:35 AM 37.4 °F - 35.6 °F 93% 30.19 in 0.2 mi Calm Calm - N/A Fog Fog
1:55 AM 37.4 °F - 35.6 °F 93% 30.19 in 0.5 mi Calm Calm - N/A Fog Fog
2:15 AM 39.2 °F - 37.4 °F 93% 30.18 in 1.2 mi Calm Calm - N/A   Mist
2:35 AM 39.2 °F - 37.4 °F 93% 30.18 in 0.2 mi Calm Calm - N/A Fog Fog
2:55 AM 39.2 °F - 37.4 °F 93% 30.18 in 1.0 mi Calm Calm - N/A   Mist
3:15 AM 39.2 °F - 37.4 °F 93% 30.18 in 0.2 mi Calm Calm - N/A Fog Fog
3:35 AM 37.4 °F - 35.6 °F 93% 30.18 in 0.2 mi Calm Calm - N/A Fog Fog
3:55 AM 39.2 °F - 37.4 °F 93% 30.18 in 0.8 mi Calm Calm - N/A   Mist
4:15 AM 37.4 °F - 37.4 °F 100% 30.17 in 0.8 mi Calm Calm - N/A   Mist
4:35 AM 37.4 °F - 35.6 °F 93% 30.17 in 1.0 mi Calm Calm - N/A   Mist
4:55 AM 39.2 °F - 37.4 °F 93% 30.17 in 0.8 mi Calm Calm - N/A   Mist
5:15 AM 39.2 °F - 37.4 °F 93% 30.17 in 0.2 mi Calm Calm - N/A Fog Fog
5:35 AM 41.0 °F - 39.2 °F 93% 30.17 in 0.5 mi Calm Calm - N/A Fog Fog
5:55 AM 41.0 °F 39.0 °F 39.2 °F 93% 30.17 in 2.0 mi South 3.5 mph - N/A   Mist
6:15 AM 41.0 °F 39.0 °F 39.2 °F 93% 30.16 in 3.0 mi South 3.5 mph - N/A   Mist
6:35 AM 41.0 °F 39.0 °F 39.2 °F 93% 30.17 in 3.0 mi South 3.5 mph - N/A   Mist
6:55 AM 42.8 °F 41.1 °F 39.2 °F 87% 30.17 in 2.0 mi South 3.5 mph - N/A   Mist
7:15 AM 42.8 °F 41.1 °F 39.2 °F 87% 30.17 in 2.0 mi South 3.5 mph - N/A   Mist
7:35 AM 42.8 °F - 41.0 °F 93% 30.17 in 2.0 mi Calm Calm - N/A   Mist
7:55 AM 44.6 °F 42.2 °F 42.8 °F 93% 30.16 in 2.5 mi South 4.6 mph - N/A   Mist
8:15 AM 46.4 °F 44.3 °F 44.6 °F 93% 30.16 in 3.0 mi South 4.6 mph - N/A   Mist
8:35 AM 48.2 °F - 44.6 °F 87% 30.16 in 4.0 mi South 5.8 mph - N/A   Mist
8:55 AM 50.0 °F - 46.4 °F 87% 30.15 in 4.0 mi South 9.2 mph - N/A   Mist
9:15 AM 51.8 °F - 48.2 °F 88% 30.15 in 5.0 mi South 9.2 mph - N/A   Mist
9:35 AM 53.6 °F - 48.2 °F 82% 30.15 in 5.0 mi SSW 16.1 mph 19.6 mph N/A   Haze
9:55 AM 53.6 °F - 46.4 °F 77% 30.15 in 7.0 mi SSW 13.8 mph - N/A   Unknown
10:15 AM 55.4 °F - 48.2 °F 77% 30.14 in 7.0 mi South 11.5 mph - N/A   Unknown
10:35 AM 57.2 °F - 48.2 °F 72% 30.14 in 7.0 mi South 12.7 mph 16.1 mph N/A   Unknown
10:55 AM 57.2 °F - 48.2 °F 72% 30.13 in 7.0 mi SSW 12.7 mph 18.4 mph N/A   Unknown
11:15 AM 57.2 °F - 48.2 °F 72% 30.12 in 7.0 mi South 15.0 mph 19.6 mph N/A   Unknown
11:35 AM 59.0 °F - 50.0 °F 72% 30.11 in 7.0 mi South 13.8 mph 18.4 mph N/A   Unknown
11:55 AM 60.8 °F - 48.2 °F 63% 30.10 in 10.0 mi SSW 12.7 mph 18.4 mph N/A   Unknown
12:15 PM 60.8 °F - 48.2 °F 63% 30.09 in 10.0 mi SSW 12.7 mph 18.4 mph N/A   Unknown
12:35 PM 60.8 °F - 48.2 °F 63% 30.08 in 10.0 mi South 11.5 mph 21.9 mph N/A   Unknown
12:55 PM 62.6 °F - 48.2 °F 59% 30.07 in 10.0 mi South 12.7 mph 18.4 mph N/A   Unknown
1:15 PM 62.6 °F - 48.2 °F 59% 30.06 in 10.0 mi South 13.8 mph - N/A   Unknown
1:35 PM 62.6 °F - 48.2 °F 59% 30.06 in 10.0 mi South 15.0 mph - N/A   Unknown
1:55 PM 62.6 °F - 48.2 °F 59% 30.05 in 10.0 mi South 11.5 mph - N/A   Unknown
2:15 PM 62.6 °F - 46.4 °F 55% 30.04 in 10.0 mi SSW 11.5 mph - N/A   Unknown
2:35 PM 62.6 °F - 44.6 °F 52% 30.04 in 10.0 mi SSW 12.7 mph 18.4 mph N/A   Unknown
2:55 PM 62.6 °F - 46.4 °F 55% 30.03 in 10.0 mi South 10.4 mph 19.6 mph N/A   Unknown
3:15 PM 62.6 °F - 46.4 °F 55% 30.03 in 10.0 mi South 12.7 mph - N/A   Unknown
3:35 PM 62.6 °F - 46.4 °F 55% 30.03 in 10.0 mi South 11.5 mph - N/A   Unknown
3:55 PM 60.8 °F - 46.4 °F 59% 30.03 in 10.0 mi SSW 11.5 mph - N/A   Unknown
4:15 PM 60.8 °F - 44.6 °F 55% 30.02 in 10.0 mi South 6.9 mph - N/A   Unknown
4:35 PM 57.2 °F - 46.4 °F 67% 30.02 in 10.0 mi South 6.9 mph - N/A   Unknown
4:55 PM 57.2 °F - 46.4 °F 67% 30.03 in 10.0 mi South 8.1 mph - N/A   Unknown
5:15 PM 57.2 °F - 46.4 °F 67% 30.03 in 10.0 mi SSW 6.9 mph - N/A   Unknown
5:35 PM 57.2 °F - 46.4 °F 67% 30.02 in 10.0 mi South 8.1 mph - N/A   Unknown
5:55 PM 57.2 °F - 44.6 °F 63% 30.03 in 10.0 mi SSW 9.2 mph - N/A   Unknown
6:15 PM 55.4 °F - 46.4 °F 72% 30.01 in 10.0 mi South 9.2 mph - N/A   Unknown
6:35 PM 55.4 °F - 46.4 °F 72% 30.02 in 10.0 mi South 10.4 mph - N/A   Unknown
6:55 PM 55.4 °F - 46.4 °F 72% 30.01 in 10.0 mi South 9.2 mph - N/A Thunderstorm Unknown
7:15 PM 55.4 °F - 46.4 °F 72% 30.01 in 10.0 mi SSW 9.2 mph - N/A   Unknown
7:35 PM 57.2 °F - 46.4 °F 67% 30.01 in 10.0 mi SSW 8.1 mph - N/A Thunderstorm Unknown
7:55 PM 55.4 °F - 46.4 °F 72% 30.01 in 10.0 mi SSW 9.2 mph - 0.01 in   Unknown
8:15 PM 55.4 °F - 48.2 °F 77% 30.03 in 10.0 mi SSW 8.1 mph - N/A Thunderstorm Thunderstorm
8:35 PM 55.4 °F - 48.2 °F 77% 30.04 in 10.0 mi SW 5.8 mph - 0.02 in Rain Light Rain
8:55 PM 55.4 °F - 50.0 °F 82% 30.03 in 10.0 mi SW 4.6 mph - 0.02 in   Unknown
9:15 PM 55.4 °F - 51.8 °F 88% 30.03 in 10.0 mi WSW 3.5 mph - N/A   Unknown
9:35 PM 55.4 °F - 51.8 °F 88% 30.04 in 10.0 mi SW 4.6 mph - N/A   Unknown
9:55 PM 55.4 °F - 51.8 °F 88% 30.04 in 10.0 mi SW 5.8 mph - N/A   Unknown
10:15 PM 57.2 °F - 51.8 °F 82% 30.04 in 10.0 mi SW 9.2 mph - N/A Rain Light Rain
10:35 PM 55.4 °F - 51.8 °F 88% 30.04 in 10.0 mi WSW 11.5 mph - 0.01 in Rain Light Rain
10:55 PM 55.4 °F - 51.8 °F 88% 30.04 in 10.0 mi WSW 11.5 mph - 0.02 in Rain Rain
11:15 PM 55.4 °F - 51.8 °F 88% 30.04 in 7.0 mi WSW 11.5 mph 17.3 mph 0.05 in Rain Rain
11:35 PM 55.4 °F - 51.8 °F 88% 30.04 in 10.0 mi WSW 13.8 mph 18.4 mph 0.12 in Rain Rain
11:55 PM 55.4 °F - 51.8 °F 88% 30.03 in 7.0 mi WSW 11.5 mph - 0.14 in Rain Light Rain